Project,Study,Ord_Occ,Event_Num,Cast_ID,Date_Time_UTC,Date_Time_PST,Lat_Dec,Lon_Dec,Sta_ID,Line,Sta,Depth,Pressure,PrQ,Temp1,Temp1Q,Temp2,Temp2Q,TempAve,Salt1,Salt1Q,Salt1_Corr,Salt2,Salt2Q,Salt2_Corr,SaltAve_Corr,Ox1,Ox1Q,Ox1_CruiseCorr,Ox1_StaCorr,Ox2,Ox2Q,Ox2_CruiseCorr,Ox2_StaCorr,OxAve_StaCorr,Ox1uM,Ox1uM_CruiseCorr,Ox1uM_StaCorr,Ox2uM,Ox2uM_CruiseCorr,Ox2uM_StaCorr,OxAveuM_StaCorr,FluorV,FluorQ,EstChl_CruiseCorr,EstChl_StaCorr,ISUSV,ISUSQ,EstNO3_CruiseCorr,EstNO3_StaCorr,SigThetaTS1,SigThetaTS1Q,SigThetaTS2,SigThetaTS2Q,BAT,XMiss,TransQ,pH,pHQ,SPAR,SPARQ,PAR,PARQ,PoT1,PoT2,DynHt,SVA,OxSat1,OxSat2,BTL_Depth,BTL_Temp,SaltB,OxB,OxBuM,Chl-a,Phaeo,NO3,NO2,NH4,PO4,SIL
CalCOFI,2007SR,050,52,2007_050d,22-Jul-2020 19:54:33,22-Jul-2020 11:54:33,32.91206,-122.12822,083.3 080.0,083.3,080.0,2.000,2.014,,16.9132,,16.9097,,16.9115,33.0424,,33.0426,33.0408,,33.0424,33.0425,5.5390,,5.7700,5.7599,4.3118,,6.3524,4.5701,5.1650,241.567,251.6837,237.6107,188.046,425.2936,184.0597,210.8352,0.0468,,0.1256,0.2025,-99.0,,-99.0,-99.0,24.0327,,24.0322,,0.7369,83.1760,,8.108,,2.2174E+03,,1.1154E+02,,16.9128,16.9094,0.0016,,99.821,77.699,2,17.255,33.0437,5.695,248.67,0.346,0.014,0.0,0.00,0.13,0.32,0.93
CalCOFI,2007SR,050,52,2007_050d,22-Jul-2020 19:54:38,22-Jul-2020 11:54:38,32.91207,-122.12822,083.3 080.0,083.3,080.0,3.000,3.021,,16.9411,,16.9269,,16.9340,33.0443,,33.0445,33.0426,,33.0442,33.0444,5.5213,,5.7515,5.7414,4.3177,,6.3664,4.5831,5.1623,240.795,250.8778,236.8331,188.303,423.4054,184.5961,210.7146,0.0408,,0.0552,0.1492,-99.0,,-99.0,-99.0,24.0277,,24.0296,,0.7297,83.3258,,8.108,,2.3549E+03,,9.7410E+01,,16.9406,16.9264,0.0063,,99.557,77.832,,,,,,,,,,,,
CalCOFI,2007SR,050,52,2007_050d,22-Jul-2020 19:54:41,22-Jul-2020 11:54:41,32.91207,-122.12822,083.3 080.0,083.3,080.0,4.000,4.028,,17.0081,,17.0085,,17.0083,33.0409,,33.0411,33.0405,,33.0421,33.0416,5.5181,,5.7482,5.7381,4.3138,,6.3571,4.5745,5.1563,240.662,250.7390,236.6992,188.137,423.0801,184.2497,210.4745,0.0408,,0.0552,0.1492,-99.0,,-99.0,-99.0,24.0094,,24.0090,,0.7328,83.2609,,8.109,,2.3641E+03,,8.2698E+01,,17.0074,17.0078,0.0102,,99.627,77.883,,,,,,,,,,,,
CalCOFI,2007SR,050,52,2007_050d,22-Jul-2020 19:54:43,22-Jul-2020 11:54:43,32.91207,-122.12822,083.3 080.0,083.3,080.0,5.000,5.036,,16.9915,,16.9957,,16.9936,33.0406,,33.0408,33.0403,,33.0419,33.0414,5.5137,,5.7436,5.7335,4.3176,,6.3662,4.5829,5.1582,240.466,250.5344,236.5018,188.304,422.6007,184.5982,210.5500,0.0411,,0.0587,0.1520,-99.0,,-99.0,-99.0,24.0131,,24.0118,,0.7307,83.3037,,8.111,,2.4292E+03,,8.0373E+01,,16.9907,16.9949,0.0141,,99.514,77.933,,,,,,,,,,,,
CalCOFI,2007SR,050,52,2007_050d,22-Jul-2020 19:54:45,22-Jul-2020 11:54:45,32.91207,-122.12822,083.3 080.0,083.3,080.0,6.000,6.043,,17.0028,,17.0028,,17.0028,33.0412,,33.0414,33.0405,,33.0421,33.0418,5.5387,,5.7697,5.7596,4.3224,,6.3777,4.5935,5.1766,241.557,251.6733,237.6006,188.510,425.2691,185.0282,211.3144,0.0421,,0.0704,0.1612,-99.0,,-99.0,-99.0,24.0109,,24.0104,,0.7293,83.3325,,8.112,,2.3467E+03,,6.3284E+01,,17.0019,17.0018,0.0180,,99.987,78.029,,,,,,,,,,,,
CalCOFI,2007SR,050,52,2007_050d,22-Jul-2020 19:54:47,22-Jul-2020 11:54:47,32.91206,-122.12822,083.3 080.0,083.3,080.0,7.000,7.050,,16.8801,,16.8835,,16.8818,33.0419,,33.0421,33.0418,,33.0434,33.0428,5.5411,,5.7722,5.7621,4.3335,,6.4042,4.6180,5.1901,241.655,251.7756,237.6993,188.992,425.5088,186.0342,211.8668,0.0447,,0.1010,0.1845,-99.0,,-99.0,-99.0,24.0402,,24.0393,,0.7387,83.1382,,8.113,,2.2290E+03,,5.7365E+01,,16.8790,16.8824,0.0219,,99.794,78.051,,,,,,,,,,,,
CalCOFI,2007SR,050,52,2007_050d,22-Jul-2020 19:54:50,22-Jul-2020 11:54:50,32.91206,-122.12822,083.3 080.0,083.3,080.0,8.000,8.057,,16.8643,,16.8810,,16.8727,33.0448,,33.0450,33.0444,,33.0460,33.0455,5.5514,,5.7830,5.7729,4.3393,,6.4180,4.6308,5.2019,242.104,252.2443,238.1515,189.244,426.6070,186.5601,212.3558,0.0463,,0.1198,0.1983,-99.0,,-99.0,-99.0,24.0461,,24.0419,,0.7393,83.1256,,8.113,,2.0914E+03,,4.5850E+01,,16.8630,16.8797,0.0258,,99.951,78.153,,,,,,,,,,,,
CalCOFI,2007SR,050,52,2007_050d,22-Jul-2020 19:54:51,22-Jul-2020 11:54:51,32.91208,-122.12822,083.3 080.0,083.3,080.0,9.000,9.064,,16.7994,,16.7739,,16.7867,33.0428,,33.0430,33.0431,,33.0447,33.0439,5.5818,,5.8147,5.8047,4.3497,,6.4428,4.6537,5.2292,243.428,253.6264,239.4850,189.694,429.8453,187.4993,213.4922,0.0481,,0.1409,0.2132,-99.0,,-99.0,-99.0,24.0597,,24.0659,,0.7450,83.0065,,8.113,,2.1311E+03,,4.4826E+01,,16.7980,16.7725,0.0297,,100.372,78.178,,,,,,,,,,,,
CalCOFI,2007SR,050,52,2007_050d,22-Jul-2020 19:54:53,22-Jul-2020 11:54:53,32.91208,-122.12822,083.3 080.0,083.3,080.0,10.000,10.071,,16.7229,,16.7214,,16.7222,33.0471,,33.0473,33.0472,,33.0488,33.0481,5.5837,,5.8167,5.8067,4.3553,,6.4562,4.6661,5.2364,243.504,253.7057,239.5616,189.935,430.0312,188.0023,213.7820,0.0507,,0.1714,0.2339,-99.0,,-99.0,-99.0,24.0809,,24.0813,,0.7484,82.9360,,8.113,,2.1466E+03,,4.4433E+01,,16.7212,16.7198,0.0336,,100.259,78.201,,,,,,,,,,,,
CalCOFI,2007SR,050,52,2007_050d,22-Jul-2020 19:54:56,22-Jul-2020 11:54:56,32.91207,-122.12822,083.3 080.0,083.3,080.0,11.000,11.078,,16.7255,,16.7490,,16.7373,33.0483,,33.0485,33.0504,,33.0520,33.0503,5.5861,,5.8192,5.8092,4.3603,,6.4681,4.6771,5.2432,243.610,253.8164,239.6683,190.153,430.2905,188.4573,214.0628,0.0521,,0.1879,0.2446,-99.0,,-99.0,-99.0,24.0812,,24.0774,,0.7482,82.9392,,8.113,,2.0186E+03,,3.5169E+01,,16.7238,16.7472,0.0374,,100.309,78.334,11,16.723,33.0525,5.804,253.43,0.476,0.038,0.08,0.027,0.06,0.32,1.12
CalCOFI,2007SR,050,52,2007_050d,22-Jul-2020 19:54:58,22-Jul-2020 11:54:58,32.91206,-122.12822,083.3 080.0,083.3,080.0,12.000,12.085,,16.6917,,16.6913,,16.6915,33.0489,,33.0491,33.0494,,33.0510,33.0501,5.5962,,5.8298,5.8198,4.3655,,6.4806,4.6886,5.2542,244.046,254.2715,240.1074,190.376,431.3569,188.9227,214.5151,0.0578,,0.2549,0.2848,-99.0,,-99.0,-99.0,24.0896,,24.0901,,0.7521,82.8601,,8.113,,1.9086E+03,,3.1951E+01,,16.6897,16.6893,0.0413,,100.423,78.338,,,,,,,,,,,,
CalCOFI,2007SR,050,52,2007_050d,22-Jul-2020 19:54:59,22-Jul-2020 11:54:59,32.91208,-122.12822,083.3 080.0,083.3,080.0,13.000,13.093,,16.6732,,16.6741,,16.6737,33.0504,,33.0506,33.0513,,33.0529,33.0518,5.5980,,5.8317,5.8216,4.3716,,6.4951,4.7020,5.2618,244.126,254.3550,240.1880,190.643,431.5525,189.4800,214.8340,0.0588,,0.2666,0.2913,-99.0,,-99.0,-99.0,24.0951,,24.0955,,0.7506,82.8894,,8.113,,1.9277E+03,,3.2045E+01,,16.6711,16.6720,0.0451,,100.422,78.423,,,,,,,,,,,,
CalCOFI,2007SR,050,52,2007_050d,22-Jul-2020 19:55:01,22-Jul-2020 11:55:01,32.91208,-122.12822,083.3 080.0,083.3,080.0,14.000,14.100,,16.6708,,16.6713,,16.6711,33.0508,,33.0510,33.0518,,33.0534,33.0522,5.6031,,5.8370,5.8270,4.3726,,6.4975,4.7042,5.2656,244.349,254.5878,240.4126,190.687,432.0980,189.5718,214.9922,0.0614,,0.2972,0.3075,-99.0,,-99.0,-99.0,24.0960,,24.0966,,0.7502,82.8988,,8.113,,1.9392E+03,,2.8108E+01,,16.6686,16.6691,0.0490,,100.509,78.438,,,,,,,,,,,,
CalCOFI,2007SR,050,52,2007_050d,22-Jul-2020 19:55:03,22-Jul-2020 11:55:03,32.91208,-122.12822,083.3 080.0,083.3,080.0,15.000,15.107,,16.6685,,16.6704,,16.6695,33.0509,,33.0511,33.0518,,33.0534,33.0523,5.6009,,5.8347,5.8247,4.3767,,6.5073,4.7133,5.2690,244.250,254.4845,240.3129,190.866,431.8558,189.9454,215.1292,0.0633,,0.3195,0.3186,-99.0,,-99.0,-99.0,24.0966,,24.0968,,0.7493,82.9183,,8.113,,2.0056E+03,,2.8392E+01,,16.6661,16.6680,0.0528,,100.464,78.510,,,,,,,,,,,,
CalCOFI,2007SR,050,52,2007_050d,22-Jul-2020 19:55:06,22-Jul-2020 11:55:06,32.91208,-122.12822,083.3 080.0,083.3,080.0,16.000,16.114,,16.6637,,16.6661,,16.6649,33.0508,,33.0510,33.0518,,33.0534,33.0522,5.5988,,5.8325,5.8225,4.3807,,6.5168,4.7221,5.2723,244.160,254.3905,240.2223,191.040,431.6357,190.3086,215.2655,0.0657,,0.3477,0.3317,-99.0,,-99.0,-99.0,24.0977,,24.0979,,0.7484,82.9358,,8.113,,2.0559E+03,,2.8233E+01,,16.6611,16.6635,0.0566,,100.418,78.575,,,,,,,,,,,,
CalCOFI,2007SR,050,52,2007_050d,22-Jul-2020 19:55:08,22-Jul-2020 11:55:08,32.91208,-122.12822,083.3 080.0,083.3,080.0,17.000,17.121,,16.6580,,16.6567,,16.6574,33.0502,,33.0504,33.0507,,33.0523,33.0514,5.6154,,5.8498,5.8398,4.3852,,6.5276,4.7320,5.2859,244.882,255.1442,240.9494,191.234,433.4016,190.7135,215.8315,0.0688,,0.3842,0.3474,-99.0,,-99.0,-99.0,24.0985,,24.0993,,0.7500,82.9029,,8.113,,2.0819E+03,,2.4584E+01,,16.6553,16.6539,0.0605,,100.703,78.640,,,,,,,,,,,,
CalCOFI,2007SR,050,52,2007_050d,22-Jul-2020 19:55:09,22-Jul-2020 11:55:09,32.91208,-122.12822,083.3 080.0,083.3,080.0,18.000,18.128,,16.6234,,16.6150,,16.6192,33.0474,,33.0476,33.0476,,33.0492,33.0484,5.6316,,5.8668,5.8568,4.3917,,6.5431,4.7464,5.3016,245.587,255.8802,241.6595,191.516,435.1259,191.3021,216.4808,0.0725,,0.4277,0.3639,-99.0,,-99.0,-99.0,24.1045,,24.1065,,0.7560,82.7795,,8.114,,2.1424E+03,,2.3094E+01,,16.6205,16.6121,0.0643,,100.924,78.691,,,,,,,,,,,,
CalCOFI,2007SR,050,52,2007_050d,22-Jul-2020 19:55:11,22-Jul-2020 11:55:11,32.91208,-122.12822,083.3 080.0,083.3,080.0,19.000,19.136,,16.5721,,16.5874,,16.5798,33.0465,,33.0467,33.0502,,33.0518,33.0493,5.6267,,5.8616,5.8516,4.3941,,6.5488,4.7517,5.3017,245.371,255.6547,241.4419,191.620,434.5976,191.5191,216.4805,0.0758,,0.4665,0.3768,-99.0,,-99.0,-99.0,24.1157,,24.1150,,0.7587,82.7235,,8.114,,2.1811E+03,,2.3420E+01,,16.5690,16.5843,0.0681,,100.736,78.694,,,,,,,,,,,,
CalCOFI,2007SR,050,52,2007_050d,22-Jul-2020 19:55:14,22-Jul-2020 11:55:14,32.91208,-122.12822,083.3 080.0,083.3,080.0,20.000,20.143,,16.5840,,16.5957,,16.5899,33.0480,,33.0482,33.0468,,33.0484,33.0483,5.6272,,5.8622,5.8522,4.4036,,6.5715,4.7726,5.3124,245.393,255.6777,241.4641,192.033,434.6514,192.3811,216.9226,0.0810,,0.5277,0.3935,-99.0,,-99.0,-99.0,24.1141,,24.1105,,0.7596,82.7040,,8.114,,2.1553E+03,,2.0640E+01,,16.5808,16.5925,0.0720,,100.769,78.874,20,15.980,33.0633,5.995,261.78,0.484,0.060,0.41,0.00,0.09,0.35,1.39
CalCOFI,2007SR,050,52,2007_050d,22-Jul-2020 19:55:16,22-Jul-2020 11:55:16,32.91208,-122.12822,083.3 080.0,083.3,080.0,21.000,21.150,,16.4314,,16.4313,,16.4314,33.0380,,33.0382,33.0380,,33.0396,33.0389,5.6743,,5.9114,5.9014,4.4299,,6.6343,4.8306,5.3660,247.439,257.8135,243.5247,193.177,439.6557,194.7688,219.1468,0.0871,,0.5995,0.4074,-99.0,,-99.0,-99.0,24.1416,,24.1415,,0.7686,82.5191,,8.114,,2.1485E+03,,1.8843E+01,,16.4280,16.4280,0.0758,,101.304,79.089,,,,,,,,,,,,
CalCOFI,2007SR,050,52,2007_050d,22-Jul-2020 19:55:18,22-Jul-2020 11:55:18,32.91208,-122.12822,083.3 080.0,083.3,080.0,22.000,22.157,,16.2599,,16.2463,,16.2531,33.0415,,33.0417,33.0402,,33.0418,33.0418,5.7100,,5.9487,5.9387,4.4432,,6.6661,4.8600,5.3994,248.985,259.4273,245.0818,193.749,443.4370,195.9626,220.5222,0.0881,,0.6112,0.4091,-99.0,,-99.0,-99.0,24.1834,,24.1855,,0.7640,82.6140,,8.115,,2.0745E+03,,1.9811E+01,,16.2564,16.2428,0.0796,,101.603,79.041,,,,,,,,,,,,
CalCOFI,2007SR,050,52,2007_050d,22-Jul-2020 19:55:19,22-Jul-2020 11:55:19,32.91208,-122.12822,083.3 080.0,083.3,080.0,23.000,23.164,,16.0973,,16.0785,,16.0879,33.0487,,33.0489,33.0498,,33.0514,33.0502,5.7256,,5.9650,5.9551,4.4559,,6.6964,4.8880,5.4216,249.657,260.1288,245.7586,194.295,445.0806,197.1022,221.4304,0.0870,,0.5983,0.4073,-99.0,,-99.0,-99.0,24.2259,,24.2310,,0.7627,82.6413,,8.116,,2.0373E+03,,1.7661E+01,,16.0937,16.0749,0.0833,,101.562,79.012,,,,,,,,,,,,
CalCOFI,2007SR,050,52,2007_050d,22-Jul-2020 19:55:21,22-Jul-2020 11:55:21,32.91208,-122.12822,083.3 080.0,083.3,080.0,24.000,24.172,,16.0573,,16.1005,,16.0789,33.0561,,33.0563,33.0544,,33.0560,33.0562,5.7076,,5.9462,5.9362,4.4630,,6.7133,4.9036,5.4199,248.869,259.3062,244.9650,194.602,443.1532,197.7429,221.3540,0.0965,,0.7101,0.4170,-99.0,,-99.0,-99.0,24.2407,,24.2296,,0.7654,82.5837,,8.116,,2.1085E+03,,1.6698E+01,,16.0535,16.0967,0.0870,,101.168,79.173,,,,,,,,,,,,
CalCOFI,2007SR,050,52,2007_050d,22-Jul-2020 19:55:24,22-Jul-2020 11:55:24,32.91208,-122.12822,083.3 080.0,083.3,080.0,25.000,25.179,,15.9661,,15.9671,,15.9666,33.0522,,33.0524,33.0524,,33.0540,33.0532,5.7413,,5.9814,5.9715,4.4946,,6.7888,4.9733,5.4724,250.334,260.8356,246.4405,195.977,446.7364,200.6127,223.5266,0.1047,,0.8067,0.4135,-99.0,,-99.0,-99.0,24.2583,,24.2582,,0.7765,82.3546,,8.116,,2.1408E+03,,1.5880E+01,,15.9622,15.9632,0.0907,,101.580,79.525,,,,,,,,,,,,
CalCOFI,2007SR,050,52,2007_050d,22-Jul-2020 19:55:26,22-Jul-2020 11:55:26,32.91208,-122.12822,083.3 080.0,083.3,080.0,26.000,26.186,,15.6477,,15.6430,,15.6454,33.0468,,33.0470,33.0449,,33.0465,33.0468,5.8221,,6.0658,6.0560,4.5220,,6.8542,5.0338,5.5449,253.840,264.4955,249.9716,197.155,455.3116,203.0714,226.5215,0.1121,,0.8939,0.4009,-99.0,,-99.0,-99.0,24.3254,,24.3249,,0.7766,82.3535,,8.117,,2.1068E+03,,1.5240E+01,,15.6437,15.6390,0.0944,,102.363,79.496,,,,,,,,,,,,
CalCOFI,2007SR,050,52,2007_050d,22-Jul-2020 19:55:27,22-Jul-2020 11:55:27,32.91208,-122.12822,083.3 080.0,083.3,080.0,27.000,27.193,,15.3912,,15.3739,,15.3826,33.0518,,33.0520,33.0519,,33.0535,33.0528,5.8573,,6.1026,6.0928,4.5427,,6.9036,5.0794,5.5861,255.361,266.0832,251.5035,198.046,459.0317,204.9310,228.2173,0.1131,,0.9057,0.3985,-99.0,,-99.0,-99.0,24.3859,,24.3898,,0.7720,82.4486,,8.120,,2.2036E+03,,1.4560E+01,,15.3871,15.3698,0.0980,,102.464,79.439,,,,,,,,,,,,
CalCOFI,2007SR,050,52,2007_050d,22-Jul-2020 19:55:29,22-Jul-2020 11:55:29,32.91208,-122.12822,083.3 080.0,083.3,080.0,28.000,28.201,,15.3316,,15.3613,,15.3465,33.0544,,33.0546,33.0579,,33.0595,33.0571,5.8668,,6.1125,6.1027,4.5469,,6.9136,5.0887,5.5957,255.770,266.5102,251.9155,198.228,460.0321,205.3108,228.6132,0.1143,,0.9198,0.3954,-99.0,,-99.0,-99.0,24.4011,,24.3972,,0.7680,82.5306,,8.120,,2.2588E+03,,1.3201E+01,,15.3273,15.3570,0.1015,,102.510,79.496,,,,,,,,,,,,
CalCOFI,2007SR,050,52,2007_050d,22-Jul-2020 19:55:33,22-Jul-2020 11:55:33,32.91208,-122.12822,083.3 080.0,083.3,080.0,29.000,29.208,,15.3651,,15.4148,,15.3900,33.0570,,33.0572,33.0575,,33.0591,33.0582,5.8174,,6.0609,6.0510,4.5571,,6.9380,5.1112,5.5811,253.617,264.2627,249.7470,198.675,454.7662,206.2438,227.9954,0.1160,,0.9399,0.3906,-99.0,,-99.0,-99.0,24.3957,,24.3852,,0.7670,82.5520,,8.118,,2.1997E+03,,1.1911E+01,,15.3607,15.4104,0.1051,,101.716,79.759,,,,,,,,,,,,
CalCOFI,2007SR,050,52,2007_050d,22-Jul-2020 19:55:34,22-Jul-2020 11:55:34,32.91208,-122.12822,083.3 080.0,083.3,080.0,30.000,30.215,,15.2498,,15.2385,,15.2442,33.0653,,33.0655,33.0674,,33.0690,33.0673,5.8583,,6.1036,6.0938,4.5845,,7.0034,5.1717,5.6328,255.392,266.1156,251.5347,199.861,459.1076,208.7191,230.1269,0.1233,,1.0259,0.3647,-99.0,,-99.0,-99.0,24.4274,,24.4315,,0.7664,82.5643,,8.119,,2.2713E+03,,1.0310E+01,,15.2453,15.2340,0.1086,,102.202,79.963,30,14.787,33.0685,,267.04,,,0.88,0.028,0.16,0.38,1.55
CalCOFI,2007SR,050,52,2007_050d,22-Jul-2020 19:55:36,22-Jul-2020 11:55:36,32.91208,-122.12822,083.3 080.0,083.3,080.0,31.000,31.222,,15.1648,,15.1517,,15.1583,33.0664,,33.0666,33.0650,,33.0666,33.0666,5.9086,,6.1562,6.1464,4.5936,,7.0251,5.1917,5.6691,257.583,268.4028,253.7414,200.254,464.4664,209.5393,231.6404,0.1283,,1.0849,0.3419,-99.0,,-99.0,-99.0,24.4468,,24.4486,,0.7684,82.5233,,8.119,,2.2653E+03,,1.0463E+01,,15.1601,15.1470,0.1121,,102.907,79.982,,,,,,,,,,,,
CalCOFI,2007SR,050,52,2007_050d,22-Jul-2020 19:55:37,22-Jul-2020 11:55:37,32.91208,-122.12822,083.3 080.0,083.3,080.0,32.000,32.229,,14.9769,,14.9500,,14.9635,33.0595,,33.0597,33.0576,,33.0592,33.0595,5.9191,,6.1672,6.1574,4.6062,,7.0552,5.2195,5.6885,258.028,268.8673,254.1896,200.796,465.5549,210.6706,232.4301,0.1311,,1.1179,0.3274,-99.0,,-99.0,-99.0,24.4823,,24.4866,,0.7697,82.4959,,8.120,,2.2826E+03,,1.0171E+01,,14.9721,14.9452,0.1156,,102.699,79.876,,,,,,,,,,,,
CalCOFI,2007SR,050,52,2007_050d,22-Jul-2020 19:55:39,22-Jul-2020 11:55:39,32.91208,-122.12821,083.3 080.0,083.3,080.0,33.000,33.237,,14.9373,,14.9648,,14.9511,33.0654,,33.0656,33.0664,,33.0680,33.0668,5.8877,,6.1344,6.1245,4.6132,,7.0719,5.2350,5.6798,256.658,267.4372,252.8098,201.099,462.2040,211.3030,232.0564,0.1223,,1.0141,0.3688,-99.0,,-99.0,-99.0,24.4954,,24.4902,,0.7619,82.6563,,8.120,,2.2728E+03,,8.9687E+00,,14.9323,14.9598,0.1191,,102.077,80.025,,,,,,,,,,,,
CalCOFI,2007SR,050,52,2007_050d,22-Jul-2020 19:55:42,22-Jul-2020 11:55:42,32.91208,-122.12822,083.3 080.0,083.3,080.0,34.000,34.244,,14.8266,,14.8486,,14.8376,33.0472,,33.0474,33.0518,,33.0534,33.0504,5.8399,,6.0844,6.0746,4.6398,,7.1354,5.2936,5.6841,254.570,265.2575,250.7068,202.260,457.0971,213.7261,232.2165,0.1158,,0.9375,0.3912,-99.0,,-99.0,-99.0,24.5052,,24.5040,,0.7421,83.0656,,8.120,,2.2167E+03,,8.3284E+00,,14.8216,14.8435,0.1225,,101.013,80.294,,,,,,,,,,,,
CalCOFI,2007SR,050,52,2007_050d,22-Jul-2020 19:55:44,22-Jul-2020 11:55:44,32.91208,-122.12822,083.3 080.0,083.3,080.0,35.000,35.251,,14.6479,,14.6412,,14.6446,33.0653,,33.0655,33.0659,,33.0675,33.0665,5.8640,,6.1096,6.0998,4.6604,,7.1846,5.3391,5.7195,255.607,266.3400,251.7513,203.143,459.6334,215.5690,233.6602,0.1157,,0.9363,0.3915,-99.0,,-99.0,-99.0,24.5574,,24.5593,,0.7351,83.2121,,8.120,,2.2980E+03,,8.3502E+00,,14.6427,14.6361,0.1260,,101.078,80.321,,,,,,,,,,,,
CalCOFI,2007SR,050,52,2007_050d,22-Jul-2020 19:55:45,22-Jul-2020 11:55:45,32.91208,-122.12822,083.3 080.0,083.3,080.0,36.000,36.258,,14.5571,,14.5429,,14.5500,33.0591,,33.0593,33.0593,,33.0609,33.0601,5.8784,,6.1246,6.1148,4.6687,,7.2044,5.3574,5.7361,256.234,266.9946,252.3828,203.501,461.1670,216.3162,234.3495,0.1201,,0.9882,0.3771,-99.0,,-99.0,-99.0,24.5719,,24.5751,,0.7302,83.3133,,8.120,,2.3090E+03,,7.4627E+00,,14.5519,14.5376,0.1294,,101.139,80.302,,,,,,,,,,,,
CalCOFI,2007SR,050,52,2007_050d,22-Jul-2020 19:55:47,22-Jul-2020 11:55:47,32.91208,-122.12821,083.3 080.0,083.3,080.0,37.000,37.266,,14.4939,,14.4955,,14.4947,33.0624,,33.0626,33.0659,,33.0675,33.0651,5.8681,,6.1139,6.1040,4.6747,,7.2187,5.3706,5.7373,255.782,266.5227,251.9275,203.760,460.0615,216.8568,234.3922,0.1259,,1.0566,0.3534,-99.0,,-99.0,-99.0,24.5878,,24.5903,,0.7304,83.3109,,8.118,,2.3578E+03,,7.1193E+00,,14.4885,14.4901,0.1328,,100.836,80.332,,,,,,,,,,,,
CalCOFI,2007SR,050,52,2007_050d,22-Jul-2020 19:55:50,22-Jul-2020 11:55:50,32.91208,-122.12822,083.3 080.0,083.3,080.0,38.000,38.273,,14.4642,,14.4913,,14.4778,33.0661,,33.0663,33.0653,,33.0669,33.0666,5.8522,,6.0973,6.0874,4.6761,,7.2221,5.3737,5.7306,255.084,265.7941,251.2245,203.824,458.3542,216.9904,234.1075,0.1280,,1.0814,0.3434,-99.0,,-99.0,-99.0,24.5970,,24.5906,,0.7262,83.3963,,8.117,,2.3972E+03,,6.8880E+00,,14.4586,14.4858,0.1361,,100.504,80.350,,,,,,,,,,,,
CalCOFI,2007SR,050,52,2007_050d,22-Jul-2020 19:55:52,22-Jul-2020 11:55:52,32.91208,-122.12822,083.3 080.0,083.3,080.0,39.000,39.280,,14.4070,,14.4079,,14.4075,33.0715,,33.0717,33.0736,,33.0752,33.0735,5.8359,,6.0802,6.0704,4.6846,,7.2423,5.3925,5.7315,254.369,265.0477,250.5044,204.190,456.6055,217.7543,234.1294,0.1309,,1.1156,0.3284,-99.0,,-99.0,-99.0,24.6133,,24.6147,,0.7273,83.3747,,8.114,,2.4122E+03,,6.3573E+00,,14.4014,14.4023,0.1395,,100.112,80.365,,,,,,,,,,,,
CalCOFI,2007SR,050,52,2007_050d,22-Jul-2020 19:55:54,22-Jul-2020 11:55:54,32.91208,-122.12822,083.3 080.0,083.3,080.0,40.000,40.288,,14.3899,,14.3886,,14.3893,33.0768,,33.0770,33.0791,,33.0807,33.0789,5.8266,,6.0705,6.0607,4.6869,,7.2478,5.3975,5.7291,253.964,264.6249,250.0965,204.287,455.6149,217.9567,234.0266,0.1356,,1.1710,0.3013,-99.0,,-99.0,-99.0,24.6210,,24.6231,,0.7261,83.3988,,8.113,,2.4010E+03,,6.0123E+00,,14.3841,14.3828,0.1428,,99.922,80.376,40,13.952,,,266.30,0.383,0.145,1.28,0.035,0.24,0.42,1.61
CalCOFI,2007SR,050,52,2007_050d,22-Jul-2020 19:55:56,22-Jul-2020 11:55:56,32.91208,-122.12822,083.3 080.0,083.3,080.0,41.000,41.295,,14.3234,,14.3316,,14.3275,33.0757,,33.0759,33.0786,,33.0802,33.0781,5.8122,,6.0555,6.0456,4.6967,,7.2712,5.4192,5.7324,253.333,263.9662,249.4610,204.710,454.0716,218.8396,234.1503,0.1375,,1.1934,0.2893,-99.0,,-99.0,-99.0,24.6341,,24.6347,,0.7227,83.4693,,8.112,,2.3936E+03,,5.5525E+00,,14.3174,14.3257,0.1462,,99.541,80.450,,,,,,,,,,,,
CalCOFI,2007SR,050,52,2007_050d,22-Jul-2020 19:55:58,22-Jul-2020 11:55:58,32.91208,-122.12822,083.3 080.0,083.3,080.0,42.000,42.302,,14.2312,,14.2357,,14.2335,33.0573,,33.0575,33.0579,,33.0595,33.0585,5.7927,,6.0351,6.0252,4.7130,,7.3101,5.4551,5.7402,252.482,263.0779,248.6039,205.421,451.9901,220.3235,234.4637,0.1420,,1.2466,0.2585,-99.0,,-99.0,-99.0,24.6393,,24.6388,,0.7223,83.4795,,8.109,,2.3938E+03,,5.3425E+00,,14.2252,14.2296,0.1495,,99.011,80.563,,,,,,,,,,,,
CalCOFI,2007SR,050,52,2007_050d,22-Jul-2020 19:56:00,22-Jul-2020 11:56:00,32.91208,-122.12822,083.3 080.0,083.3,080.0,43.000,43.310,,14.0845,,14.0730,,14.0788,33.0275,,33.0277,33.0258,,33.0274,33.0276,5.8235,,6.0673,6.0574,4.7395,,7.3734,5.5136,5.7855,253.823,264.4777,249.9545,206.573,455.2700,222.7279,236.3412,0.1401,,1.2241,0.2719,-99.0,,-99.0,-99.0,24.6468,,24.6480,,0.7205,83.5177,,8.110,,2.3949E+03,,5.1322E+00,,14.0784,14.0669,0.1528,,99.223,80.733,,,,,,,,,,,,
CalCOFI,2007SR,050,52,2007_050d,22-Jul-2020 19:56:01,22-Jul-2020 11:56:01,32.91208,-122.12822,083.3 080.0,083.3,080.0,44.000,44.317,,13.8581,,13.8352,,13.8467,32.9782,,32.9784,32.9730,,32.9746,32.9765,5.9320,,6.1806,6.1709,4.7474,,7.3923,5.5310,5.8510,258.550,269.4122,254.7154,206.916,466.8316,223.4438,239.0796,0.1382,,1.2017,0.2847,-99.0,,-99.0,-99.0,24.6555,,24.6562,,0.7175,83.5786,,8.111,,2.3929E+03,,4.8207E+00,,13.8519,13.8290,0.1561,,100.578,80.452,,,,,,,,,,,,
CalCOFI,2007SR,050,52,2007_050d,22-Jul-2020 19:56:04,22-Jul-2020 11:56:04,32.91208,-122.12821,083.3 080.0,083.3,080.0,45.000,45.324,,13.6398,,13.7495,,13.6947,32.9584,,32.9586,32.9836,,32.9852,32.9719,5.8178,,6.0613,6.0515,4.7813,,7.4732,5.6058,5.8287,253.564,264.2074,249.6936,208.390,454.6365,226.5202,238.1069,0.1179,,0.9623,0.3847,-99.0,,-99.0,-99.0,24.6847,,24.6818,,0.7090,83.7576,,8.115,,2.3698E+03,,4.4150E+00,,13.6335,13.7431,0.1594,,98.191,80.890,,,,,,,,,,,,
CalCOFI,2007SR,050,52,2007_050d,22-Jul-2020 19:56:07,22-Jul-2020 11:56:07,32.91208,-122.12822,083.3 080.0,083.3,080.0,46.000,46.331,,13.1717,,13.0387,,13.1052,32.8352,,32.8354,32.8186,,32.8202,32.8278,5.9064,,6.1539,6.1441,4.8677,,7.6795,5.7964,5.9703,257.427,268.2399,253.5843,212.153,464.0849,234.3740,243.9792,0.1119,,0.8915,0.4013,-99.0,,-99.0,-99.0,24.6827,,24.6966,,0.6951,84.0490,,8.117,,2.3817E+03,,4.3032E+00,,13.1654,13.0325,0.1627,,98.649,81.074,,,,,,,,,,,,
CalCOFI,2007SR,050,52,2007_050d,22-Jul-2020 19:56:08,22-Jul-2020 11:56:08,32.91208,-122.12822,083.3 080.0,083.3,080.0,47.000,47.339,,12.7181,,12.7022,,12.7102,32.7938,,32.7940,32.7867,,32.7883,32.7912,5.9993,,6.2510,6.2412,4.8855,,7.7220,5.8356,6.0384,261.461,272.4510,257.6472,212.919,473.9515,235.9728,246.8100,0.1065,,0.8279,0.4112,-99.0,,-99.0,-99.0,24.7405,,24.7381,,0.7070,83.7989,,8.117,,2.3799E+03,,4.1092E+00,,12.7118,12.6960,0.1660,,99.248,80.791,,,,,,,,,,,,
CalCOFI,2007SR,050,52,2007_050d,22-Jul-2020 19:56:09,22-Jul-2020 11:56:09,32.91208,-122.12822,083.3 080.0,083.3,080.0,48.000,48.346,,12.4692,,12.4191,,12.4442,32.7372,,32.7374,32.7330,,32.7346,32.7360,6.0219,,6.2746,6.2649,4.9117,,7.7845,5.8934,6.0792,262.443,273.4761,258.6363,214.060,476.3533,238.3542,248.4953,0.0990,,0.7396,0.4171,-99.0,,-99.0,-99.0,24.7445,,24.7509,,0.6888,84.1812,,8.119,,2.3608E+03,,3.8808E+00,,12.4629,12.4129,0.1692,,99.070,80.720,,,,,,,,,,,,
CalCOFI,2007SR,050,52,2007_050d,22-Jul-2020 19:56:11,22-Jul-2020 11:56:11,32.91208,-122.12821,083.3 080.0,083.3,080.0,49.000,49.353,,12.4108,,12.4336,,12.4222,32.7369,,32.7371,32.7475,,32.7491,32.7431,6.0144,,6.2667,6.2570,4.9101,,7.7807,5.8899,6.0735,262.113,273.1317,258.3039,213.987,475.5462,238.2018,248.2529,0.1026,,0.7820,0.4154,-99.0,,-99.0,-99.0,24.7555,,24.7594,,0.6878,84.2014,,8.117,,2.3712E+03,,3.7279E+00,,12.4044,12.4272,0.1724,,98.826,80.725,,,,,,,,,,,,